When you browse on this site, cookies collect data to enhance your experience and personalize the content and advertising you see.
Visit our Privacy Policy to learn more. By continuing to use the site, you agree to this use of cookies and data.
  • In Denmark
  • List of Countries
  • For 7 days
  • Water Temperature
  • Weather Map
  • Weather Widgets
  • user-avatar
    Login

    Hourly Weather Chyczewo

    Today, 27 January, Monday

    Time Temperature Precipitation Wind Pressure Humidity
    00:00 -1°C° 0 mm 2 mps 752 mmHg 75%
    01:00 -1°C° 0 mm 2 mps 752 mmHg 73%
    02:00 -1°C° 0 mm 2 mps 751 mmHg 73%
    03:00 -1°C° 0 mm 2 mps 751 mmHg 73%
    04:00 -1°C° 0 mm 2 mps 751 mmHg 73%
    05:00 -1°C° 0 mm 2 mps 751 mmHg 74%
    06:00 -1°C° 0 mm 2 mps 751 mmHg 75%
    07:00 -1°C° 0 mm 2 mps 750 mmHg 76%
    08:00 -1°C° 0 mm 2 mps 750 mmHg 75%
    09:00 +1°C° 0 mm 2 mps 750 mmHg 74%
    10:00 0°C° 0 mm 3 mps 750 mmHg 72%
    11:00 +1°C° 0 mm 3 mps 750 mmHg 74%
    12:00 +1°C° 0 mm 3 mps 750 mmHg 76%
    13:00 +1°C° 0 mm 3 mps 749 mmHg 78%
    14:00 +1°C° 0 mm 3 mps 749 mmHg 79%
    15:00 +1°C° 0 mm 3 mps 749 mmHg 81%
    16:00 +1°C° 0 mm 3 mps 748 mmHg 82%
    17:00 +1°C° 0 mm 3 mps 748 mmHg 86%
    18:00 +1°C° 0 mm 3 mps 748 mmHg 89%
    19:00 0°C° 0 mm 3 mps 748 mmHg 92%
    20:00 0°C° 0 mm 3 mps 747 mmHg 92%
    21:00 0°C° 0 mm 3 mps 747 mmHg 92%
    22:00 0°C° 0 mm 3 mps 747 mmHg 92%
    23:00 0°C° 0 mm 3 mps 746 mmHg 92%

    Tomorrow, 28 January, Tuesday

    Time Temperature Precipitation Wind Pressure Humidity
    00:00 0°C° 0 mm 3 mps 746 mmHg 91%
    01:00 0°C° 0 mm 3 mps 745 mmHg 91%
    02:00 0°C° 0 mm 3 mps 744 mmHg 91%
    03:00 -1°C° 0 mm 4 mps 744 mmHg 90%
    04:00 -1°C° 0 mm 4 mps 743 mmHg 90%
    05:00 -1°C° 0 mm 4 mps 743 mmHg 89%
    06:00 -1°C° 0 mm 4 mps 742 mmHg 89%
    07:00 -1°C° 0 mm 4 mps 742 mmHg 89%
    08:00 0°C° 0 mm 5 mps 741 mmHg 84%
    09:00 +1°C° 0 mm 5 mps 741 mmHg 80%
    10:00 +1°C° 0 mm 6 mps 740 mmHg 76%
    11:00 +2°C° 0.1 mm 6 mps 739 mmHg 76%
    12:00 +2°C° 0.1 mm 5 mps 739 mmHg 75%
    13:00 +3°C° 0.1 mm 5 mps 738 mmHg 75%
    14:00 +2°C° 0.5 mm 5 mps 738 mmHg 80%
    15:00 +2°C° 0.5 mm 5 mps 737 mmHg 85%
    16:00 +1°C° 0.5 mm 4 mps 736 mmHg 90%
    17:00 +3°C° 0.1 mm 4 mps 736 mmHg 88%
    18:00 +3°C° 0.1 mm 4 mps 736 mmHg 87%
    19:00 +3°C° 0.1 mm 4 mps 736 mmHg 85%
    20:00 +3°C° 0.1 mm 4 mps 736 mmHg 83%
    21:00 +3°C° 0.1 mm 4 mps 736 mmHg 82%
    22:00 +2°C° 0.1 mm 5 mps 735 mmHg 81%
    23:00 +1°C° 0 mm 4 mps 735 mmHg 77%

    Day after tomorrow, 29 January, Wednesday

    Time Temperature Precipitation Wind Pressure Humidity
    00:00 0°C° 0 mm 4 mps 735 mmHg 74%
    01:00 0°C° 0 mm 4 mps 735 mmHg 71%
    02:00 -1°C° 0 mm 4 mps 735 mmHg 72%
    03:00 -1°C° 0 mm 5 mps 735 mmHg 73%
    04:00 -1°C° 0 mm 5 mps 735 mmHg 74%
    05:00 -3°C° 0.1 mm 6 mps 735 mmHg 80%
    06:00 -3°C° 0.1 mm 6 mps 735 mmHg 87%
    07:00 -3°C° 0.1 mm 7 mps 735 mmHg 93%
    08:00 -3°C° 0.3 mm 7 mps 736 mmHg 94%
    09:00 -2°C° 0.3 mm 8 mps 736 mmHg 94%
    10:00 -2°C° 0.3 mm 8 mps 736 mmHg 95%
    11:00 -2°C° 0.3 mm 7 mps 737 mmHg 92%
    12:00 -2°C° 0.3 mm 7 mps 737 mmHg 90%
    13:00 -1°C° 0.3 mm 6 mps 738 mmHg 88%
    14:00 -1°C° 0.1 mm 6 mps 738 mmHg 86%
    15:00 0°C° 0.1 mm 5 mps 738 mmHg 84%
    16:00 0°C° 0.1 mm 4 mps 738 mmHg 83%
    17:00 0°C° 0 mm 5 mps 739 mmHg 87%
    18:00 0°C° 0 mm 5 mps 739 mmHg 91%
    19:00 0°C° 0 mm 5 mps 739 mmHg 95%
    20:00 0°C° 0.1 mm 5 mps 739 mmHg 94%
    21:00 0°C° 0.1 mm 5 mps 740 mmHg 93%
    22:00 0°C° 0.1 mm 5 mps 740 mmHg 92%
    23:00 0°C° 0 mm 5 mps 740 mmHg 91%

    30 January, Thursday

    Time Temperature Precipitation Wind Pressure Humidity
    00:00 0°C° 0 mm 5 mps 741 mmHg 90%
    01:00 0°C° 0 mm 5 mps 742 mmHg 89%
    02:00 -1°C° 0 mm 6 mps 742 mmHg 91%
    03:00 -1°C° 0 mm 6 mps 743 mmHg 93%
    04:00 -1°C° 0 mm 6 mps 743 mmHg 95%
    05:00 -1°C° 0 mm 6 mps 744 mmHg 91%
    06:00 -1°C° 0 mm 6 mps 744 mmHg 87%
    07:00 -1°C° 0 mm 6 mps 745 mmHg 82%
    08:00 -1°C° 0 mm 6 mps 745 mmHg 82%
    09:00 -1°C° 0 mm 6 mps 745 mmHg 81%
    10:00 -1°C° 0 mm 6 mps 746 mmHg 81%
    11:00 +1°C° 0 mm 6 mps 746 mmHg 79%
    12:00 +1°C° 0 mm 6 mps 746 mmHg 77%
    13:00 +2°C° 0 mm 7 mps 746 mmHg 75%
    14:00 +2°C° 0.1 mm 6 mps 746 mmHg 78%
    15:00 +1°C° 0.1 mm 6 mps 746 mmHg 80%
    16:00 +1°C° 0.1 mm 6 mps 746 mmHg 83%
    17:00 -1°C° 0.1 mm 6 mps 746 mmHg 87%
    18:00 -1°C° 0.1 mm 6 mps 746 mmHg 91%
    19:00 -2°C° 0.1 mm 6 mps 745 mmHg 95%
    20:00 -1°C° 0.1 mm 6 mps 745 mmHg 95%
    21:00 -1°C° 0.1 mm 6 mps 744 mmHg 95%
    22:00 +1°C° 0.1 mm 6 mps 744 mmHg 94%
    23:00 +1°C° 0.4 mm 6 mps 744 mmHg 94%

    31 January, Friday

    Time Temperature Precipitation Wind Pressure Humidity
    00:00 +2°C° 0.4 mm 7 mps 743 mmHg 93%
    01:00 +2°C° 0.4 mm 7 mps 743 mmHg 92%
    02:00 +2°C° 0.3 mm 7 mps 743 mmHg 92%
    03:00 +2°C° 0.3 mm 7 mps 742 mmHg 92%
    04:00 +2°C° 0.3 mm 6 mps 742 mmHg 92%
    05:00 +2°C° 0.1 mm 6 mps 741 mmHg 92%
    06:00 +1°C° 0.1 mm 6 mps 741 mmHg 92%
    07:00 +1°C° 0.1 mm 5 mps 741 mmHg 92%
    08:00 +1°C° 0.2 mm 5 mps 741 mmHg 91%
    09:00 +1°C° 0.2 mm 5 mps 741 mmHg 89%
    10:00 0°C° 0.2 mm 5 mps 741 mmHg 88%
    11:00 0°C° 0.4 mm 4 mps 741 mmHg 90%
    12:00 +1°C° 0.4 mm 3 mps 741 mmHg 93%
    13:00 +2°C° 0.4 mm 2 mps 741 mmHg 96%
    14:00 +2°C° 0.1 mm 2 mps 741 mmHg 96%
    15:00 +2°C° 0.1 mm 2 mps 742 mmHg 96%
    16:00 +3°C° 0.1 mm 1 mps 742 mmHg 96%
    17:00 +3°C° 0 mm 1 mps 743 mmHg 96%
    18:00 +2°C° 0 mm 2 mps 743 mmHg 96%
    19:00 +2°C° 0 mm 2 mps 744 mmHg 96%
    20:00 +2°C° 0 mm 2 mps 744 mmHg 96%
    21:00 +2°C° 0 mm 2 mps 744 mmHg 96%
    22:00 +2°C° 0 mm 3 mps 745 mmHg 96%
    23:00 +2°C° 0.1 mm 3 mps 745 mmHg 96%

    1 February, Saturday

    Time Temperature Precipitation Wind Pressure Humidity
    00:00 +3°C° 0.1 mm 4 mps 745 mmHg 95%
    01:00 +4°C° 0.1 mm 4 mps 745 mmHg 94%
    02:00 +3°C° 0 mm 5 mps 745 mmHg 94%
    03:00 +3°C° 0 mm 5 mps 745 mmHg 93%
    04:00 +2°C° 0 mm 5 mps 745 mmHg 93%
    05:00 +2°C° 0 mm 5 mps 745 mmHg 93%
    06:00 +2°C° 0 mm 5 mps 745 mmHg 93%
    07:00 +2°C° 0 mm 5 mps 745 mmHg 92%
    08:00 +3°C° 0 mm 6 mps 746 mmHg 91%
    09:00 +3°C° 0 mm 6 mps 746 mmHg 90%
    10:00 +4°C° 0 mm 6 mps 746 mmHg 89%
    11:00 +4°C° 0 mm 6 mps 746 mmHg 88%
    12:00 +5°C° 0 mm 6 mps 746 mmHg 88%
    13:00 +7°C° 0 mm 6 mps 746 mmHg 87%
    14:00 +7°C° 0 mm 5 mps 746 mmHg 88%
    15:00 +6°C° 0 mm 5 mps 746 mmHg 89%
    16:00 +6°C° 0 mm 4 mps 746 mmHg 90%
    17:00 +6°C° 0 mm 4 mps 746 mmHg 91%
    18:00 +6°C° 0 mm 4 mps 745 mmHg 92%
    19:00 +6°C° 0 mm 4 mps 745 mmHg 93%
    20:00 +6°C° 0 mm 4 mps 745 mmHg 93%
    21:00 +7°C° 0 mm 4 mps 745 mmHg 93%
    22:00 +7°C° 0 mm 5 mps 745 mmHg 93%
    23:00 +7°C° 0.5 mm 5 mps 744 mmHg 94%
    Show more